Location: Moscow Pond
(43.6842°N, 73.2366°W)
Time: 23:53:32
(UTC+00:00)

NOSS 2-1 (D) - Pass Details

Date: 08 November 2025
Orbit: 374 x 1681 km, 63.3° (Epoch: 05 December)

Event Time Altitude Azimuth Distance (km) Brightness Sun altitude
Exits shadow 09:34:49 24° 22° (NNE) 902 4.6 -22.5°
Drops below altitude 10° 09:36:10 10° 30° (NNE) 1,446 5.8 -22.3°
Sets 09:38:04 0° 34° (NE) 2,262 6.9 -21.9°
